Regional Weather Roundup
Issued by NWS

Home | Current Version | Previous Version | Graphics & Text | Print | Product List | Glossary On
Versions: 1 2 3 4 5 6 7 8 9 10 11 12 13 14 15 16 17 18 19 20 21 22 23 24 25 26 27 28 29 30 31 32 33 34 35 36 37 38 39 40 41 42 43 44 45 46 47 48 49 50
000
ASUS43 KDTX 261910
RWRMI
MICHIGAN HOURLY REGIONAL WEATHER ROUNDUP
NATIONAL WEATHER SERVICE DETROIT/PONTIAC MI
200 PM EST WED NOV 26 2014

NOTE: "FAIR" INDICATES FEW OR NO CLOUDS BELOW 12,000 FEET WITH NO
SIGNIFICANT WEATHER AND/OR OBSTRUCTION TO VISIBILITY.

MIZ047>049-052>055-059>063-066>070-074>076-081>083-262000-
SOUTHEAST LOWER MICHIGAN

CITY           SKY/WX    TMP DP  RH WIND       PRES   REMARKS
ADRIAN         CLOUDY    31  22  69 E5        30.10F
ALMA           CLOUDY    30  22  72 CALM      30.12F
ANN ARBOR      CLOUDY    32  23  69 SE5       30.10S
BAD AXE        CLOUDY    31  24  73 CALM      30.13S
DETROIT CITY   CLOUDY    35  23  61 NE5       30.11F
DETROIT        CLOUDY    33  24  69 NE5       30.11F
FLINT          CLOUDY    34  21  59 SE3       30.11F
GROSSE ILE     CLOUDY    34  25  69 NE6       30.09F
HILLSDALE      CLOUDY    30  21  69 SE5       30.07F
HOWELL         CLOUDY    31  22  69 SE3       30.09S

CITY           SKY/WX    TMP DP  RH WIND       PRES   REMARKS
JACKSON        CLOUDY    30  21  69 E8        30.08F
LAMBERTVILLE   CLOUDY    34  25  69 E3        30.11F
LANSING        CLOUDY    31  20  63 SE7       30.11F
LAPEER         NOT AVBL
MASON          CLOUDY    31  23  72 SE6       30.09F
MONROE         CLOUDY    34  25  69 CALM      30.09F
MT. CLEMENS    CLOUDY    34  23  64 E5        30.09F
PONTIAC        CLOUDY    32  20  61 E7        30.08F
PORT HOPE        N/A     33  24  69 W5        30.11F
PORT HURON     CLOUDY    32  23  69 CALM      30.12F
TRI CITIES     CLOUDY    32  20  61 CALM      30.14S
YPSILANTI      CLOUDY    36  24  62 E3        30.11F
$$
MIZ043>046-050>051-056>058-064>065-071>073-077>080-262000-
SOUTHWEST LOWER MICHIGAN

CITY           SKY/WX    TMP DP  RH WIND       PRES   REMARKS
BATTLE CREEK   CLOUDY    31  19  61 VRB5      30.10S
BENTON HARBOR  CLOUDY    27  19  72 S5        30.13S
BIG RAPIDS     CLOUDY    28  25  88 CALM      30.10F
COLDWATER      CLOUDY    31  21  68 SE5       30.09S
HOLLAND        CLOUDY    31  21  66 CALM      30.13S
GRAND RAPIDS   CLOUDY    30  20  66 CALM      30.12S
KALAMAZOO      CLOUDY    29  20  69 S6        30.11S
MARSHALL       CLOUDY    29  21  71 NE3       30.09S
MUSKEGON       LGT SNOW  30  23  75 SE3       30.13F
$$
MIZ016>042-262000-
NORTHERN LOWER MICHIGAN

CITY           SKY/WX    TMP DP  RH WIND       PRES   REMARKS
ALPENA         CLOUDY    28  23  81 W9        30.15S
BEAVER ISLAND  FLURRIES  30  23  77 SE3       30.14F
BELLAIRE       FLURRIES  28  23  81 CALM      30.16S
CADILLAC       LGT SNOW  26  22  85 CALM      30.08F
CHARLEVOIX     CLOUDY    27  22  79 S8        30.17S
FRANKFORT      CLOUDY    29  25  84 E3        30.13S
GAYLORD        LGT SNOW  24  18  77 S5        30.11F
GRAYLING       LGT SNOW  26  22  86 E3        30.12F
HARBOR SPRINGS CLOUDY    27  22  81 S5        30.15S
HOUGHTON LAKE  CLOUDY    26  20  77 NE3       30.12F
MANISTEE       CLOUDY    30  23  74 CALM      30.14S
OSCODA         CLOUDY    30  23  75 NW6       30.13S
PELLSTON       CLOUDY    27  20  75 S8        30.15F
TRAVERSE CITY  FLURRIES  30  23  75 SE3       30.13F
$$
MIZ007>008-015-262000-
EASTERN UPPER MICHIGAN

CITY           SKY/WX    TMP DP  RH WIND       PRES   REMARKS
KINROSS        CLOUDY    27  25  93 E5        30.16S
MACKINAC ISLAN CLOUDY    28  19  70 S6        30.15F
NEWBERRY       LGT SNOW  24  23  95 CALM      30.13F
S. S. MARIE    LGT SNOW  26  22  84 E3        30.17R FOG
$$
MIZ004>006-011>014-085-262000-
CENTRAL UPPER MICHIGAN

CITY           SKY/WX    TMP DP  RH WIND       PRES   REMARKS
MANISTIQUE     CLOUDY    26  20  79 NW8       30.14F
ESCANABA       PTSUNNY   23  14  68 NW7       30.14F
MENOMINEE      CLOUDY    23  16  74 NW3       30.15S
SAWYER-GWINN   CLOUDY    21  16  79 S3        30.10F
$$
MIZ001>003-009>011-084-262000-
WESTERN UPPER MICHIGAN

CITY           SKY/WX    TMP DP  RH WIND       PRES   REMARKS
IRON MOUNTAIN  CLOUDY    22  16  78 CALM      30.11S
HOUGHTON       LGT SNOW  21  17  84 S5        30.09S FOG
COPPER HARBOR    N/A     26  19  74 SW8       30.12S
IRONWOOD       CLOUDY    21  19  93 W7        30.11S
$$

ABBREVIATIONS USED IN REMARKS
   TC - TEMPERATURE IN CELSIUS
  WCI - WIND CHILL INDEX
   HX - HEAT INDEX
  VSB - VISIBILITY



USA.gov is the U.S. government's official web portal to all federal, state and local government web resources and services.